Tracking 30743 objects as of 20-Jun-2025
HD Live streaming from Space Station
objects crossing your sky now

STARLINK-6216

Track STARLINK-6216 now!
10-day predictions
STARLINK-6216 is classified as:


NORAD ID: 56893
Int'l Code: 2023-083T
Perigee: 565.5 km
Apogee: 566.9 km
Inclination: 43.0 °
Period: 95.8 minutes
Semi major axis: 6937 km
RCS: Unknown
Launch date: June 12, 2023
Source: United States (US)
Launch site: AIR FORCE EASTERN TEST RANGE (AFETR)
Your satellite tracking list
Your tracking list is empty




NASA's NSSDC Master Catalog

Two Line Element Set (TLE):
1 56893U 23083T   25170.45169816 -.00001588  00000-0 -10253-3 0  9990
2 56893  43.0063  72.0466 0001002 282.6543  77.4187 15.02537596112198
Source of the keplerian elements: AFSPC